| time (UTC) | temp C | wind direction | speed KPH | gust KPH | rain 1hr cm | rain 24hr cm | rain mn cm | humidity % | barometer mb |
| 20260506171116 | 12 | 63 | 1.6 | 8.0 | 0.00 | 0.71 | 0.71 | 33 | 1020.3 |
| 20260506170636 | 12 | 253 | 3.2 | 11.3 | 0.00 | 0.71 | 0.71 | 33 | 1020.3 |
| 20260506170121 | 12 | 336 | 3.2 | 11.3 | 0.00 | 0.71 | 0.71 | 33 | 1020.2 |
| 20260506165622 | 11 | 39 | 1.6 | 11.3 | 0.00 | 0.71 | 0.71 | 34 | 1020.1 |
| 20260506165146 | 11 | 24 | 1.6 | 9.7 | 0.00 | 0.71 | 0.71 | 31 | 1019.9 |
| 20260506164626 | 11 | 272 | 6.4 | 9.7 | 0.00 | 0.71 | 0.71 | 30 | 1019.9 |
| 20260506164117 | 11 | 233 | 1.6 | 9.7 | 0.00 | 0.71 | 0.71 | 36 | 1019.9 |
| 20260506163618 | 11 | 307 | 3.2 | 16.1 | 0.00 | 0.71 | 0.71 | 39 | 1019.8 |
| 20260506163121 | 11 | 7 | 4.8 | 16.1 | 0.00 | 0.71 | 0.71 | 34 | 1019.7 |
| 20260506162642 | 11 | 145 | 3.2 | 16.1 | 0.00 | 0.71 | 0.71 | 34 | 1019.6 |
| 20260506162129 | 11 | 94 | 4.8 | 8.0 | 0.00 | 0.71 | 0.71 | 34 | 1019.5 |
| 20260506161630 | 11 | 246 | 1.6 | 12.9 | 0.00 | 0.71 | 0.71 | 40 | 1019.6 |
| 20260506161112 | 11 | 56 | 4.8 | 14.5 | 0.00 | 0.71 | 0.71 | 41 | 1019.6 |
| 20260506160619 | 10 | 42 | 4.8 | 14.5 | 0.00 | 0.71 | 0.71 | 43 | 1019.6 |
| 20260506160119 | 10 | 110 | 6.4 | 12.9 | 0.00 | 0.71 | 0.71 | 43 | 1019.4 |
| 20260506155627 | 10 | 79 | 8.0 | 12.9 | 0.00 | 0.71 | 0.71 | 41 | 1019.4 |
| 20260506155127 | 10 | 41 | 6.4 | 12.9 | 0.00 | 0.71 | 0.71 | 42 | 1019.3 |
| 20260506154636 | 10 | 43 | 8.0 | 14.5 | 0.00 | 0.71 | 0.71 | 41 | 1019.3 |
| 20260506154116 | 11 | 63 | 3.2 | 14.5 | 0.00 | 0.71 | 0.71 | 42 | 1019.3 |
| 20260506153637 | 11 | 33 | 1.6 | 6.4 | 0.00 | 0.71 | 0.71 | 42 | 1019.3 |
| 20260506153124 | 10 | 338 | 1.6 | 6.4 | 0.00 | 0.71 | 0.71 | 43 | 1019.3 |
| 20260506152626 | 11 | 15 | 1.6 | 3.2 | 0.00 | 0.71 | 0.71 | 44 | 1019.3 |
| 20260506152136 | 10 | 3 | 1.6 | 8.0 | 0.00 | 0.71 | 0.71 | 43 | 1019.2 |
| 20260506151614 | 10 | 11 | 1.6 | 8.0 | 0.00 | 0.71 | 0.71 | 42 | 1019.1 |
| 20260506151116 | 10 | 317 | 1.6 | 3.2 | 0.00 | 0.71 | 0.71 | 43 | 1019.1 |
| 20260506150642 | 10 | 23 | 1.6 | 9.7 | 0.00 | 0.71 | 0.71 | 43 | 1019.1 |
| 20260506150121 | 10 | 290 | 4.8 | 9.7 | 0.00 | 0.71 | 0.71 | 43 | 1018.9 |
| 20260506145630 | 10 | 345 | 1.6 | 8.0 | 0.00 | 0.71 | 0.71 | 44 | 1018.9 |
| 20260506145130 | 10 | 305 | 3.2 | 8.0 | 0.00 | 0.71 | 0.71 | 46 | 1018.8 |
| 20260506144658 | 10 | 331 | 0.0 | 8.0 | 0.00 | 0.71 | 0.71 | 46 | 1018.7 |
| 20260506144139 | 10 | 303 | 1.6 | 8.0 | 0.00 | 0.71 | 0.71 | 44 | 1018.7 |
| 20260506143620 | 10 | 293 | 0.0 | 4.8 | 0.00 | 0.71 | 0.71 | 43 | 1018.6 |
| 20260506143128 | 10 | 301 | 0.0 | 3.2 | 0.00 | 0.71 | 0.71 | 44 | 1018.7 |
| 20260506142630 | 10 | 301 | 0.0 | 3.2 | 0.00 | 0.71 | 0.71 | 43 | 1018.8 |
| 20260506142138 | 10 | 360 | 0.0 | 6.4 | 0.00 | 0.71 | 0.71 | 45 | 1018.7 |
| 20260506141619 | 10 | 11 | 1.6 | 6.4 | 0.00 | 0.71 | 0.71 | 44 | 1018.6 |
| 20260506141120 | 10 | 39 | 1.6 | 3.2 | 0.00 | 0.71 | 0.71 | 45 | 1018.5 |
| 20260506140621 | 10 | 351 | 0.0 | 4.8 | 0.00 | 0.71 | 0.71 | 47 | 1018.5 |
| 20260506140126 | 9 | 12 | 0.0 | 3.2 | 0.00 | 0.71 | 0.71 | 48 | 1018.5 |
| 20260506135626 | 9 | 337 | 0.0 | 1.6 | 0.00 | 0.71 | 0.71 | 46 | 1018.4 |
| 20260506135135 | 8 | 314 | 0.0 | 3.2 | 0.00 | 0.71 | 0.71 | 49 | 1018.4 |
| 20260506134637 | 7 | 8 | 0.0 | 3.2 | 0.00 | 0.71 | 0.71 | 51 | 1018.5 |
| 20260506134116 | 6 | 345 | 0.0 | 1.6 | 0.00 | 0.71 | 0.71 | 53 | 1018.4 |
| 20260506133623 | 6 | 345 | 0.0 | 1.6 | 0.00 | 0.71 | 0.71 | 56 | 1018.3 |
| 20260506133131 | 5 | 339 | 0.0 | 1.6 | 0.00 | 0.71 | 0.71 | 55 | 1018.3 |
| 20260506132648 | 5 | 85 | 0.0 | 1.6 | 0.00 | 0.71 | 0.71 | 56 | 1018.1 |
| 20260506132136 | 5 | 85 | 0.0 | 1.6 | 0.00 | 0.71 | 0.71 | 54 | 1017.8 |
| 20260506131615 | 5 | 49 | 0.0 | 1.6 | 0.00 | 0.71 | 0.71 | 57 | 1017.8 |
| 20260506131122 | 5 | 49 | 0.0 | 3.2 | 0.00 | 0.71 | 0.71 | 56 | 1017.7 |
| 20260506130622 | 5 | 277 | 1.6 | 3.2 | 0.00 | 0.71 | 0.71 | 56 | 1017.6 |
| 20260506130129 | 5 | 122 | 1.6 | 3.2 | 0.00 | 0.71 | 0.71 | 55 | 1017.4 |
| 20260506125630 | 5 | 299 | 0.0 | 4.8 | 0.00 | 0.71 | 0.71 | 55 | 1017.4 |
| 20260506125118 | 5 | 352 | 0.0 | 4.8 | 0.00 | 0.71 | 0.71 | 56 | 1017.3 |
| 20260506124618 | 5 | 287 | 0.0 | 1.6 | 0.00 | 0.71 | 0.71 | 58 | 1017.1 |
| 20260506124119 | 6 | 341 | 0.0 | 6.4 | 0.00 | 0.71 | 0.71 | 57 | 1017.0 |
| 20260506123627 | 6 | 320 | 3.2 | 4.8 | 0.00 | 0.71 | 0.71 | 54 | 1017.0 |
| 20260506123148 | 7 | 291 | 1.6 | 6.4 | 0.00 | 0.71 | 0.71 | 47 | 1016.9 |
| 20260506122635 | 8 | 58 | 1.6 | 6.4 | 0.00 | 0.71 | 0.71 | 40 | 1016.8 |
| 20260506122116 | 8 | 49 | 3.2 | 14.5 | 0.00 | 0.71 | 0.71 | 38 | 1016.5 |
| 20260506121645 | 8 | 46 | 4.8 | 14.5 | 0.00 | 0.71 | 0.71 | 42 | 1016.5 |
| 20260506121143 | 8 | 150 | 3.2 | 9.7 | 0.00 | 0.71 | 0.71 | 37 | 1016.5 |
| 20260506120630 | 8 | 129 | 3.2 | 24.1 | 0.00 | 0.71 | 0.71 | 36 | 1016.4 |
| 20260506120130 | 8 | 71 | 6.4 | 24.1 | 0.00 | 0.71 | 0.71 | 38 | 1016.2 |
| 20260506115638 | 8 | 148 | 4.8 | 16.1 | 0.00 | 0.71 | 0.71 | 40 | 1016.3 |
| 20260506115118 | 8 | 77 | 3.2 | 16.1 | 0.00 | 0.71 | 0.71 | 42 | 1016.3 |
| 20260506114619 | 8 | 142 | 3.2 | 16.1 | 0.00 | 0.71 | 0.71 | 41 | 1016.3 |
| 20260506114147 | 8 | 143 | 3.2 | 14.5 | 0.00 | 0.71 | 0.71 | 42 | 1016.3 |
| 20260506113614 | 8 | 56 | 6.4 | 16.1 | 0.00 | 0.71 | 0.71 | 41 | 1016.3 |
| 20260506113116 | 8 | 160 | 6.4 | 16.1 | 0.00 | 0.71 | 0.71 | 45 | 1016.3 |
| 20260506112617 | 7 | 97 | 1.6 | 11.3 | 0.00 | 0.71 | 0.71 | 46 | 1016.2 |
| 20260506112145 | 7 | 212 | 3.2 | 9.7 | 0.00 | 0.71 | 0.71 | 50 | 1016.2 |
| 20260506111652 | 7 | 216 | 1.6 | 8.0 | 0.00 | 0.71 | 0.71 | 52 | 1016.1 |
| 20260506111111 | 7 | 59 | 0.0 | 17.7 | 0.00 | 0.71 | 0.71 | 53 | 1016.1 |
| 20260506110617 | 7 | 199 | 4.8 | 27.4 | 0.00 | 0.71 | 0.71 | 52 | 1016.0 |
| 20260506110118 | 7 | 120 | 8.0 | 29.0 | 0.00 | 0.71 | 0.71 | 54 | 1015.8 |
| 20260506105626 | 6 | 125 | 14.5 | 33.8 | 0.00 | 0.71 | 0.71 | 56 | 1015.7 |
| 20260506105127 | 6 | 150 | 16.1 | 37.0 | 0.00 | 0.71 | 0.71 | 58 | 1015.6 |
| 20260506104627 | 6 | 229 | 19.3 | 37.0 | 0.00 | 0.71 | 0.71 | 58 | 1015.8 |
| 20260506104135 | 6 | 176 | 16.1 | 41.8 | 0.00 | 0.71 | 0.71 | 58 | 1015.9 |
| 20260506103616 | 6 | 132 | 16.1 | 43.5 | 0.00 | 0.71 | 0.71 | 59 | 1015.8 |
| 20260506103117 | 6 | 134 | 19.3 | 43.5 | 0.00 | 0.71 | 0.71 | 58 | 1015.6 |
| 20260506102624 | 6 | 224 | 20.9 | 40.2 | 0.00 | 0.71 | 0.71 | 59 | 1015.6 |
| 20260506102125 | 6 | 134 | 20.9 | 43.5 | 0.00 | 0.71 | 0.71 | 60 | 1015.5 |
| 20260506101612 | 5 | 180 | 20.9 | 49.9 | 0.00 | 0.71 | 0.71 | 60 | 1015.3 |
| 20260506101112 | 5 | 143 | 20.9 | 46.7 | 0.00 | 0.71 | 0.71 | 61 | 1015.3 |
| 20260506100615 | 5 | 137 | 14.5 | 46.7 | 0.00 | 0.71 | 0.71 | 64 | 1015.3 |
| 20260506100141 | 5 | 138 | 16.1 | 41.8 | 0.00 | 0.71 | 0.71 | 64 | 1015.4 |
| 20260506095628 | 5 | 112 | 24.1 | 49.9 | 0.00 | 0.71 | 0.71 | 62 | 1015.1 |
| 20260506095128 | 5 | 109 | 24.1 | 49.9 | 0.00 | 0.71 | 0.71 | 62 | 1015.0 |
| 20260506094629 | 5 | 189 | 17.7 | 41.8 | 0.00 | 0.71 | 0.71 | 64 | 1014.7 |
| 20260506094137 | 5 | 127 | 24.1 | 41.8 | 0.00 | 0.71 | 0.71 | 63 | 1014.5 |
| 20260506093617 | 5 | 139 | 17.7 | 49.9 | 0.03 | 0.71 | 0.71 | 66 | 1014.7 |
| 20260506093117 | 5 | 102 | 19.3 | 53.1 | 0.08 | 0.71 | 0.71 | 65 | 1014.6 |
| 20260506092645 | 5 | 123 | 24.1 | 53.1 | 0.25 | 0.71 | 0.71 | 63 | 1014.7 |
| 20260506092125 | 5 | 116 | 24.1 | 54.7 | 0.41 | 0.71 | 0.71 | 64 | 1014.4 |
| 20260506091633 | 5 | 188 | 22.5 | 54.7 | 0.48 | 0.71 | 0.71 | 65 | 1014.5 |
| 20260506091113 | 5 | 73 | 25.7 | 49.9 | 0.53 | 0.71 | 0.71 | 67 | 1014.3 |
| 20260506090621 | 5 | 150 | 27.4 | 51.5 | 0.56 | 0.71 | 0.71 | 70 | 1014.2 |
| 20260506090141 | 5 | 84 | 22.5 | 53.1 | 0.56 | 0.71 | 0.71 | 73 | 1014.4 |
| 20260506085627 | 5 | 105 | 29.0 | 53.1 | 0.56 | 0.71 | 0.71 | 72 | 1013.9 |
| 20260506085128 | 5 | 114 | 29.0 | 51.5 | 0.56 | 0.71 | 0.71 | 74 | 1014.0 |
| 20260506084636 | 4 | 68 | 27.4 | 45.1 | 0.56 | 0.71 | 0.71 | 76 | 1014.0 |
| 20260506084117 | 4 | 125 | 19.3 | 48.3 | 0.56 | 0.71 | 0.71 | 78 | 1014.2 |
| 20260506083618 | 4 | 132 | 27.4 | 48.3 | 0.53 | 0.69 | 0.69 | 79 | 1014.0 |
| 20260506083118 | 4 | 124 | 27.4 | 48.3 | 0.46 | 0.61 | 0.61 | 80 | 1014.4 |
| 20260506082626 | 4 | 65 | 19.3 | 48.3 | 0.30 | 0.46 | 0.46 | 81 | 1014.3 |
| 20260506082126 | 5 | 99 | 24.1 | 48.3 | 0.15 | 0.30 | 0.30 | 79 | 1013.7 |
| 20260506081631 | 5 | 77 | 20.9 | 49.9 | 0.08 | 0.23 | 0.23 | 77 | 1013.5 |
| 20260506081132 | 6 | 56 | 20.9 | 53.1 | 0.03 | 0.18 | 0.18 | 73 | 1013.4 |
| 20260506080617 | 7 | 69 | 22.5 | 48.3 | 0.00 | 0.15 | 0.15 | 69 | 1013.1 |
| 20260506080144 | 7 | 46 | 24.1 | 45.1 | 0.00 | 0.15 | 0.15 | 66 | 1012.6 |
| 20260506073119 | 9 | 72 | 0.0 | 1.6 | 0.10 | 0.15 | 0.15 | 83 | 1012.4 |
| 20260506072643 | 9 | 104 | 0.0 | 0.0 | 0.10 | 0.15 | 0.15 | 82 | 1012.5 |
| 20260506072123 | 9 | 104 | 0.0 | 3.2 | 0.13 | 0.15 | 0.15 | 80 | 1012.6 |
| 20260506071651 | 9 | 104 | 0.0 | 3.2 | 0.13 | 0.15 | 0.15 | 80 | 1012.6 |
| 20260506071111 | 9 | 88 | 1.6 | 4.8 | 0.15 | 0.15 | 0.15 | 80 | 1012.6 |
| 20260506070611 | 9 | 79 | 3.2 | 4.8 | 0.15 | 0.15 | 0.15 | 79 | 1012.6 |
| 20260506070118 | 9 | 60 | 0.0 | 6.4 | 0.13 | 0.13 | 0.13 | 80 | 1012.7 |
| 20260506062124 | 10 | 97 | 1.6 | 3.2 | 0.03 | 0.03 | 0.03 | 74 | 1012.4 |
| 20260506061653 | 11 | 290 | 0.0 | 1.6 | 0.00 | 0.00 | 0.00 | 71 | 1012.4 |
| 20260506061112 | 11 | 352 | 0.0 | 1.6 | 0.00 | 0.00 | 0.00 | 68 | 1012.3 |
| 20260506060613 | 10 | 92 | 0.0 | 1.6 | 0.00 | 0.00 | 0.00 | 65 | 1012.1 |
| 20260506060121 | 10 | 92 | 0.0 | 0.0 | 0.00 | 0.00 | 0.00 | 64 | 1012.0 |
| 20260506051135 | 11 | 283 | 1.6 | 3.2 | 0.00 | 0.00 | 0.00 | 63 | 1011.3 |
| 20260506050615 | 11 | 261 | 0.0 | 4.8 | 0.00 | 0.00 | 0.00 | 62 | 1011.1 |
| 20260506050115 | 11 | 254 | 1.6 | 4.8 | 0.00 | 0.00 | 0.00 | 61 | 1010.8 |
| 20260506045123 | 11 | 87 | 0.0 | 1.6 | 0.00 | 0.00 | 0.00 | 59 | 1010.6 |
| 20260506044624 | 11 | 100 | 0.0 | 1.6 | 0.00 | 0.00 | 0.00 | 59 | 1010.5 |
| 20260506044132 | 11 | 100 | 0.0 | 1.6 | 0.00 | 0.00 | 0.00 | 59 | 1010.6 |
| 20260506043617 | 11 | 82 | 0.0 | 3.2 | 0.00 | 0.00 | 0.00 | 59 | 1010.8 |
| 20260506043117 | 11 | 101 | 1.6 | 3.2 | 0.00 | 0.00 | 0.00 | 58 | 1010.8 |
| 20260506042626 | 11 | 84 | 0.0 | 1.6 | 0.00 | 0.00 | 0.00 | 58 | 1010.7 |
| 20260506042143 | 11 | 84 | 0.0 | 3.2 | 0.00 | 0.00 | 0.00 | 58 | 1010.7 |
| 20260506041630 | 11 | 96 | 0.0 | 1.6 | 0.00 | 0.00 | 0.00 | 59 | 1010.8 |
| 20260506041114 | 11 | 33 | 0.0 | 1.6 | 0.00 | 0.00 | 0.00 | 59 | 1010.9 |
| 20260506040657 | 11 | 20 | 0.0 | 3.2 | 0.00 | 0.00 | 0.00 | 59 | 1010.9 |
| 20260506040115 | 11 | 71 | 0.0 | 3.2 | 0.00 | 0.00 | 0.00 | 60 | 1010.8 |
| 20260506035615 | 10 | 65 | 0.0 | 1.6 | 0.00 | 0.00 | 0.00 | 60 | 1010.8 |
| 20260506035124 | 11 | 55 | 0.0 | 1.6 | 0.00 | 0.00 | 0.00 | 60 | 1010.8 |
| 20260506034624 | 11 | 55 | 0.0 | 1.6 | 0.00 | 0.00 | 0.00 | 60 | 1010.8 |
| 20260506034131 | 11 | 55 | 0.0 | 1.6 | 0.00 | 0.00 | 0.00 | 60 | 1010.6 |
| 20260506033612 | 11 | 55 | 0.0 | 1.6 | 0.00 | 0.00 | 0.00 | 58 | 1010.4 |
| 20260506033112 | 11 | 55 | 0.0 | 3.2 | 0.00 | 0.00 | 0.00 | 58 | 1010.4 |
| 20260506032620 | 11 | 55 | 1.6 | 3.2 | 0.00 | 0.00 | 0.00 | 57 | 1010.4 |
| 20260506032122 | 11 | 126 | 0.0 | 1.6 | 0.00 | 0.00 | 0.00 | 58 | 1010.5 |
| 20260506031622 | 11 | 126 | 0.0 | 1.6 | 0.00 | 0.00 | 0.00 | 58 | 1010.6 |
| 20260506031116 | 11 | 126 | 0.0 | 1.6 | 0.00 | 0.00 | 0.00 | 57 | 1010.5 |
| 20260506030615 | 12 | 126 | 0.0 | 1.6 | 0.00 | 0.00 | 0.00 | 56 | 1010.5 |
| 20260506030115 | 12 | 161 | 0.0 | 0.0 | 0.00 | 0.00 | 0.00 | 56 | 1010.3 |
| 20260506025622 | 12 | 161 | 0.0 | 0.0 | 0.00 | 0.00 | 0.00 | 56 | 1010.3 |
| 20260506025123 | 12 | 161 | 0.0 | 0.0 | 0.00 | 0.00 | 0.00 | 55 | 1010.2 |
| 20260506024632 | 12 | 161 | 0.0 | 0.0 | 0.00 | 0.00 | 0.00 | 55 | 1010.1 |
| 20260506024134 | 13 | 161 | 0.0 | 0.0 | 0.00 | 0.00 | 0.00 | 53 | 1010.1 |
| 20260506023615 | 13 | 161 | 0.0 | 0.0 | 0.00 | 0.00 | 0.00 | 53 | 1010.1 |
| 20260506023123 | 13 | 161 | 0.0 | 1.6 | 0.00 | 0.00 | 0.00 | 52 | 1009.9 |
| 20260506022623 | 14 | 161 | 0.0 | 1.6 | 0.00 | 0.00 | 0.00 | 49 | 1009.8 |
| 20260506022131 | 15 | 160 | 0.0 | 3.2 | 0.00 | 0.00 | 0.00 | 48 | 1009.8 |
| 20260506021612 | 15 | 125 | 1.6 | 4.8 | 0.00 | 0.00 | 0.00 | 46 | 1009.7 |
| 20260506021112 | 16 | 165 | 0.0 | 4.8 | 0.00 | 0.00 | 0.00 | 45 | 1009.6 |
| 20260506020613 | 16 | 226 | 0.0 | 3.2 | 0.00 | 0.00 | 0.00 | 45 | 1009.5 |
| 20260506020119 | 16 | 226 | 1.6 | 3.2 | 0.00 | 0.00 | 0.00 | 44 | 1009.6 |
| 20260506015621 | 16 | 153 | 0.0 | 3.2 | 0.00 | 0.00 | 0.00 | 44 | 1009.5 |
| 20260506015129 | 17 | 213 | 0.0 | 4.8 | 0.00 | 0.00 | 0.00 | 42 | 1009.4 |
| 20260506014629 | 17 | 207 | 1.6 | 4.8 | 0.00 | 0.00 | 0.00 | 41 | 1009.6 |
| 20260506014130 | 17 | 23 | 0.0 | 4.8 | 0.00 | 0.00 | 0.00 | 41 | 1009.6 |
| 20260506013611 | 17 | 232 | 0.0 | 3.2 | 0.00 | 0.00 | 0.00 | 42 | 1009.5 |
| 20260506013118 | 17 | 233 | 0.0 | 3.2 | 0.00 | 0.00 | 0.00 | 42 | 1009.5 |
| 20260506012620 | 17 | 186 | 1.6 | 4.8 | 0.00 | 0.00 | 0.00 | 41 | 1009.5 |
| 20260506012128 | 17 | 53 | 1.6 | 4.8 | 0.00 | 0.00 | 0.00 | 38 | 1009.5 |
| 20260506011628 | 17 | 184 | 0.0 | 4.8 | 0.00 | 0.00 | 0.00 | 38 | 1009.5 |
| 20260506011136 | 17 | 209 | 0.0 | 4.8 | 0.00 | 0.00 | 0.00 | 39 | 1009.6 |
| 20260506010637 | 17 | 167 | 1.6 | 4.8 | 0.00 | 0.00 | 0.00 | 39 | 1009.5 |
| 20260506010122 | 17 | 135 | 1.6 | 4.8 | 0.00 | 0.00 | 0.00 | 40 | 1009.6 |
| 20260506005643 | 17 | 112 | 1.6 | 4.8 | 0.00 | 0.00 | 0.00 | 38 | 1009.6 |
| 20260506005129 | 17 | 155 | 3.2 | 4.8 | 0.00 | 0.00 | 0.00 | 38 | 1009.6 |
| 20260506004626 | 17 | 177 | 1.6 | 8.0 | 0.00 | 0.00 | 0.00 | 39 | 1009.7 |
| 20260506004117 | 17 | 200 | 1.6 | 8.0 | 0.00 | 0.00 | 0.00 | 40 | 1009.6 |
| 20260506003618 | 17 | 171 | 3.2 | 6.4 | 0.00 | 0.00 | 0.00 | 39 | 1009.7 |
| 20260506003120 | 17 | 149 | 1.6 | 6.4 | 0.00 | 0.00 | 0.00 | 39 | 1009.8 |
| 20260506002644 | 17 | 154 | 1.6 | 6.4 | 0.00 | 0.00 | 0.00 | 39 | 1009.7 |
| 20260506002123 | 17 | 243 | 0.0 | 8.0 | 0.00 | 0.00 | 0.00 | 39 | 1009.7 |
| 20260506001652 | 17 | 253 | 3.2 | 6.4 | 0.00 | 0.00 | 0.00 | 41 | 1009.7 |
| 20260506001112 | 17 | 288 | 3.2 | 6.4 | 0.00 | 0.00 | 0.00 | 39 | 1009.7 |
| 20260506000640 | 17 | 295 | 3.2 | 6.4 | 0.00 | 0.00 | 0.00 | 41 | 1009.8 |
| 20260506000120 | 17 | 330 | 1.6 | 4.8 | 0.00 | 0.00 | 0.00 | 40 | 1009.7 |
| 20260505235628 | 17 | 254 | 1.6 | 6.4 | 0.00 | 0.00 | 0.00 | 42 | 1009.6 |
| 20260505235129 | 16 | 259 | 1.6 | 8.0 | 0.00 | 0.00 | 0.00 | 42 | 1009.7 |
| 20260505234636 | 17 | 271 | 1.6 | 4.8 | 0.00 | 0.00 | 0.00 | 39 | 1009.7 |
| 20260505234117 | 17 | 293 | 1.6 | 4.8 | 0.00 | 0.00 | 0.00 | 41 | 1009.7 |
| 20260505233617 | 17 | 210 | 1.6 | 4.8 | 0.00 | 0.00 | 0.00 | 42 | 1009.7 |
| 20260505233145 | 17 | 272 | 0.0 | 3.2 | 0.00 | 0.00 | 0.00 | 41 | 1009.8 |
| 20260505232646 | 17 | 268 | 0.0 | 4.8 | 0.00 | 0.00 | 0.00 | 46 | 1009.9 |
| 20260505232133 | 17 | 148 | 1.6 | 4.8 | 0.00 | 0.00 | 0.00 | 42 | 1009.9 |
| 20260505231614 | 16 | 221 | 0.0 | 3.2 | 0.00 | 0.00 | 0.00 | 44 | 1009.9 |
| 20260505231113 | 15 | 219 | 1.6 | 3.2 | 0.00 | 0.00 | 0.00 | 46 | 1010.1 |
| 20260505230642 | 15 | 101 | 1.6 | 4.8 | 0.00 | 0.00 | 0.00 | 45 | 1010.1 |
| 20260505230127 | 15 | 160 | 1.6 | 4.8 | 0.00 | 0.00 | 0.00 | 48 | 1010.1 |
| 20260505225627 | 14 | 191 | 0.0 | 3.2 | 0.00 | 0.00 | 0.00 | 49 | 1010.3 |
| 20260505225129 | 14 | 75 | 0.0 | 4.8 | 0.00 | 0.00 | 0.00 | 48 | 1010.3 |
| 20260505224637 | 14 | 89 | 3.2 | 6.4 | 0.00 | 0.00 | 0.00 | 47 | 1010.4 |
| 20260505224118 | 14 | 169 | 1.6 | 8.0 | 0.00 | 0.00 | 0.00 | 47 | 1010.4 |
| 20260505223618 | 13 | 89 | 0.0 | 4.8 | 0.00 | 0.00 | 0.00 | 49 | 1010.4 |
| 20260505223119 | 13 | 309 | 1.6 | 6.4 | 0.00 | 0.00 | 0.00 | 50 | 1010.5 |
| 20260505222627 | 13 | 70 | 1.6 | 8.0 | 0.00 | 0.00 | 0.00 | 48 | 1010.6 |
| 20260505222129 | 13 | 70 | 3.2 | 8.0 | 0.00 | 0.00 | 0.00 | 48 | 1010.8 |
| 20260505221636 | 13 | 35 | 1.6 | 6.4 | 0.00 | 0.00 | 0.00 | 52 | 1010.8 |
| 20260505221116 | 13 | 82 | 0.0 | 8.0 | 0.00 | 0.00 | 0.00 | 52 | 1010.8 |
| 20260505220615 | 12 | 174 | 1.6 | 16.1 | 0.00 | 0.00 | 0.00 | 53 | 1010.8 |
| 20260505220121 | 12 | 72 | 6.4 | 16.1 | 0.00 | 0.00 | 0.00 | 56 | 1010.9 |
| 20260505215124 | 12 | 88 | 9.7 | 19.3 | 0.00 | 0.00 | 0.00 | 60 | 1011.1 |
| 20260505214632 | 12 | 60 | 6.4 | 17.7 | 0.00 | 0.00 | 0.00 | 62 | 1011.3 |
| 20260505214117 | 12 | 79 | 9.7 | 17.7 | 0.00 | 0.00 | 0.00 | 62 | 1011.3 |
| 20260505213636 | 12 | 84 | 8.0 | 20.9 | 0.00 | 0.00 | 0.00 | 62 | 1011.4 |
| 20260505213123 | 12 | 120 | 9.7 | 20.9 | 0.00 | 0.00 | 0.00 | 60 | 1011.4 |
| 20260505212624 | 12 | 75 | 1.6 | 14.5 | 0.00 | 0.00 | 0.00 | 60 | 1011.4 |
| 20260505212132 | 12 | 80 | 4.8 | 14.5 | 0.00 | 0.00 | 0.00 | 59 | 1011.4 |
| 20260505211617 | 12 | 53 | 3.2 | 9.7 | 0.00 | 0.00 | 0.00 | 57 | 1011.4 |
| 20260505211117 | 12 | 63 | 1.6 | 9.7 | 0.00 | 0.00 | 0.00 | 58 | 1011.4 |
| 20260505210640 | 12 | 34 | 3.2 | 8.0 | 0.00 | 0.00 | 0.00 | 58 | 1011.3 |
| 20260505210147 | 12 | 23 | 1.6 | 9.7 | 0.00 | 0.00 | 0.00 | 57 | 1011.3 |
| 20260505205628 | 12 | 41 | 3.2 | 9.7 | 0.00 | 0.00 | 0.00 | 61 | 1011.3 |
| 20260505205129 | 13 | 18 | 3.2 | 8.0 | 0.00 | 0.00 | 0.00 | 60 | 1011.3 |
| 20260505204617 | 13 | 33 | 1.6 | 4.8 | 0.00 | 0.00 | 0.00 | 57 | 1011.3 |
| 20260505204119 | 13 | 283 | 0.0 | 3.2 | 0.00 | 0.00 | 0.00 | 53 | 1011.3 |
| 20260505203626 | 13 | 130 | 0.0 | 1.6 | 0.00 | 0.00 | 0.00 | 51 | 1011.3 |
| 20260505203127 | 13 | 136 | 1.6 | 1.6 | 0.00 | 0.00 | 0.00 | 50 | 1011.2 |
| 20260505202628 | 13 | 138 | 0.0 | 4.8 | 0.00 | 0.00 | 0.00 | 50 | 1011.3 |
| 20260505202137 | 13 | 137 | 1.6 | 4.8 | 0.00 | 0.00 | 0.00 | 50 | 1011.3 |
| 20260505201617 | 13 | 266 | 0.0 | 1.6 | 0.00 | 0.00 | 0.00 | 50 | 1011.3 |
| 20260505201124 | 13 | 266 | 0.0 | 4.8 | 0.00 | 0.00 | 0.00 | 49 | 1011.3 |
| 20260505200622 | 13 | 153 | 1.6 | 4.8 | 0.00 | 0.00 | 0.00 | 50 | 1011.3 |
| 20260505200132 | 13 | 91 | 3.2 | 8.0 | 0.00 | 0.00 | 0.00 | 49 | 1011.3 |
| 20260505195651 | 13 | 141 | 1.6 | 8.0 | 0.00 | 0.00 | 0.00 | 50 | 1011.3 |
| 20260505195111 | 13 | 130 | 3.2 | 6.4 | 0.00 | 0.00 | 0.00 | 50 | 1011.3 |
| 20260505194638 | 13 | 120 | 3.2 | 16.1 | 0.00 | 0.00 | 0.00 | 52 | 1011.2 |
| 20260505194118 | 13 | 58 | 8.0 | 17.7 | 0.00 | 0.00 | 0.00 | 53 | 1011.2 |
| 20260505193624 | 13 | 61 | 6.4 | 17.7 | 0.00 | 0.00 | 0.00 | 53 | 1011.2 |
| 20260505193125 | 13 | 118 | 4.8 | 14.5 | 0.00 | 0.00 | 0.00 | 51 | 1011.2 |
| 20260505192633 | 13 | 63 | 8.0 | 14.5 | 0.00 | 0.00 | 0.00 | 51 | 1011.3 |
| 20260505192134 | 13 | 79 | 4.8 | 16.1 | 0.00 | 0.00 | 0.00 | 53 | 1011.4 |
| 20260505191613 | 13 | 89 | 8.0 | 16.1 | 0.00 | 0.00 | 0.00 | 52 | 1011.4 |
| 20260505191120 | 13 | 88 | 6.4 | 16.1 | 0.00 | 0.00 | 0.00 | 50 | 1011.4 |
| 20260505190621 | 13 | 208 | 0.0 | 1.6 | 0.00 | 0.00 | 0.00 | 48 | 1011.4 |
| 20260505190128 | 13 | 267 | 0.0 | 1.6 | 0.00 | 0.00 | 0.00 | 50 | 1011.3 |
| 20260505185629 | 13 | 288 | 0.0 | 6.4 | 0.00 | 0.00 | 0.00 | 50 | 1011.4 |
| 20260505185137 | 13 | 185 | 1.6 | 6.4 | 0.00 | 0.00 | 0.00 | 50 | 1011.4 |
| 20260505184618 | 13 | 199 | 0.0 | 11.3 | 0.00 | 0.00 | 0.00 | 51 | 1011.5 |
| 20260505184119 | 13 | 326 | 4.8 | 11.3 | 0.00 | 0.00 | 0.00 | 48 | 1011.5 |
| 20260505183627 | 13 | 288 | 1.6 | 4.8 | 0.00 | 0.00 | 0.00 | 47 | 1011.4 |
| 20260505183125 | 13 | 307 | 0.0 | 8.0 | 0.00 | 0.00 | 0.00 | 47 | 1011.4 |
| 20260505182623 | 13 | 290 | 1.6 | 4.8 | 0.00 | 0.00 | 0.00 | 46 | 1011.4 |
| 20260505182151 | 14 | 229 | 0.0 | 8.0 | 0.00 | 0.00 | 0.00 | 46 | 1011.4 |
| 20260505181611 | 14 | 162 | 3.2 | 8.0 | 0.00 | 0.00 | 0.00 | 45 | 1011.4 |
| 20260505181111 | 14 | 27 | 1.6 | 8.0 | 0.00 | 0.00 | 0.00 | 46 | 1011.4 |
| 20260505180615 | 14 | 141 | 1.6 | 16.1 | 0.00 | 0.00 | 0.00 | 47 | 1011.3 |
| 20260505180115 | 13 | 146 | 3.2 | 16.1 | 0.00 | 0.00 | 0.00 | 48 | 1011.3 |
| 20260505175642 | 13 | 157 | 4.8 | 11.3 | 0.00 | 0.00 | 0.00 | 46 | 1011.3 |
| 20260505175130 | 13 | 228 | 4.8 | 11.3 | 0.00 | 0.00 | 0.00 | 47 | 1011.3 |
| 20260505174612 | 13 | 137 | 1.6 | 8.0 | 0.00 | 0.00 | 0.00 | 51 | 1011.3 |
| 20260505174113 | 13 | 274 | 1.6 | 8.0 | 0.00 | 0.00 | 0.00 | 49 | 1011.3 |
| 20260505173613 | 13 | 193 | 1.6 | 12.9 | 0.00 | 0.00 | 0.00 | 50 | 1011.3 |
| 20260505173121 | 13 | 161 | 3.2 | 9.7 | 0.00 | 0.00 | 0.00 | 49 | 1011.3 |
| 20260505172622 | 13 | 276 | 3.2 | 8.0 | 0.00 | 0.00 | 0.00 | 51 | 1011.2 |
| 20260505172122 | 13 | 219 | 1.6 | 11.3 | 0.00 | 0.00 | 0.00 | 49 | 1011.3 |
| 20260505171630 | 13 | 207 | 3.2 | 11.3 | 0.00 | 0.00 | 0.00 | 49 | 1011.2 |